KN4CI-1 Weather Reports


time (UTC)temp
F
wind
direction
speed
knots
gust
knots
rain 1hr
in
rain 24hr
in
rain mn
in
humidity
%
barometer
mb
20260906063809 77 232 0.0 0.0 0.00 0.00 0.00 29 1013.6
20260906062809 78 232 0.0 0.0 0.00 0.00 0.00 29 1013.6
20260906060254 77 146 0.0 0.0 0.00 0.00 0.00 30 1013.6
20260906055750 77 169 0.0 0.0 0.00 0.00 0.00 30 1013.6
20260906055245 77 156 0.0 0.0 0.00 0.00 0.00 30 1012.6
20260906054746 77 154 0.0 0.0 0.00 0.00 0.00 30 1012.6
20260906053737 77 177 0.0 0.0 0.00 0.00 0.00 30 1012.6
20260906053237 77 116 0.0 0.0 0.00 0.00 0.00 30 1012.6
20260906052235 77 120 0.0 0.0 0.00 0.00 0.00 30 1012.6
20260906051735 77 120 0.0 0.0 0.00 0.00 0.00 30 1012.6
20260906051235 77 120 0.0 0.0 0.00 0.00 0.00 30 1012.6
20260906050731 77 120 0.0 0.0 0.00 0.00 0.00 30 1013.6
20260906050231 77 119 0.0 0.0 0.00 0.00 0.00 30 1013.6
20260906045227 77 120 0.0 0.0 0.00 0.00 0.00 30 1013.6
20260906044727 77 120 0.0 0.0 0.00 0.00 0.00 30 1013.6
20260906044227 77 119 0.0 0.0 0.00 0.00 0.00 30 1013.6
20260906043721 77 120 0.0 0.0 0.00 0.00 0.00 29 1013.6
20260906043221 78 119 0.0 0.0 0.00 0.00 0.00 29 1013.6
20260906042217 78 120 0.0 0.0 0.00 0.00 0.00 27 1012.6
20260906033156 79 103 0.0 0.0 0.00 0.00 0.00 25 1012.6
20260906032657 79 103 0.0 0.0 0.00 0.00 0.00 24 1012.6
20260906015632 80 338 0.0 0.0 0.00 0.00 0.00 20 1012.6
20260906013627 81 338 0.0 0.0 0.00 0.00 0.00 20 1011.6
20260906013127 81 337 0.0 0.0 0.00 0.00 0.00 20 1011.6
20260906011624 81 338 0.0 0.0 0.00 0.00 0.00 20 1011.6
20260906011125 81 337 0.0 0.0 0.00 0.00 0.00 19 1011.6
20260906010622 82 338 0.0 0.0 0.00 0.00 0.00 19 1011.6
20260906005623 82 337 0.0 0.0 0.00 0.00 0.00 19 1011.6
20260906004620 83 337 0.0 0.0 0.00 0.00 0.00 19 1011.6
20260906003617 83 337 0.0 0.0 0.00 0.00 0.00 19 1011.6
20260906002618 84 337 0.0 0.0 0.00 0.00 0.00 16 1011.6
20260906002115 84 338 0.0 0.0 0.00 0.00 0.00 16 1011.6
20260906000611 86 337 0.0 0.0 0.00 0.00 0.00 16 1011.6
20260906000112 86 337 0.0 0.0 0.00 0.00 0.00 13 1011.6
20260905235612 86 337 0.0 0.0 0.00 0.00 0.00 13 1011.6
20260905234109 87 337 0.0 0.0 0.00 0.00 0.00 13 1011.6
20260905232607 89 338 0.0 0.0 0.00 0.00 0.00 12 1011.6
20260905231604 90 337 0.0 0.0 0.00 0.00 0.00 12 1011.6
20260905220041 94 337 0.0 0.0 0.00 0.00 0.00 11 1011.6
20260905211027 96 337 0.0 0.0 0.00 0.00 0.00 11 1011.6
20260905205521 96 318 0.0 0.0 0.00 0.00 0.00 11 1012.6
20260905204518 96 64 0.0 0.0 0.00 0.00 0.00 11 1012.6
20260905203012 98 110 0.0 0.0 0.00 0.00 0.00 10 1012.6
20260905200001 98 59 0.0 0.0 0.00 0.00 0.00 10 1012.6
20260905193959 99 326 0.0 0.0 0.00 0.00 0.00 10 1013.6
20260905184448 97 341 0.0 0.0 0.00 0.00 0.00 11 1013.6
20260905183948 97 318 0.0 0.0 0.00 0.00 0.00 11 1013.6
20260905183443 96 166 0.0 0.0 0.00 0.00 0.00 11 1013.6
20260905181939 96 351 0.0 0.0 0.00 0.00 0.00 11 1014.6
20260905180938 96 37 0.0 0.0 0.00 0.00 0.00 11 1014.6
20260905173932 95 347 0.0 0.0 0.00 0.00 0.00 11 1014.6
20260905172430 94 9 0.0 0.0 0.00 0.00 0.00 11 1014.6
20260905135320 80 53 0.0 0.0 0.00 0.00 0.00 30 1015.6
20260905133815 79 53 0.0 0.0 0.00 0.00 0.00 31 1015.6
20260905124255 74 53 0.0 0.0 0.00 0.00 0.00 33 1015.6
20260905123755 74 53 0.0 0.0 0.00 0.00 0.00 33 1015.6
20260905122750 73 53 0.0 0.0 0.00 0.00 0.00 33 1015.6
20260905122251 73 53 0.0 0.0 0.00 0.00 0.00 33 1015.6
20260905121246 72 53 0.0 0.0 0.00 0.00 0.00 33 1015.6
20260905120746 72 53 0.0 0.0 0.00 0.00 0.00 33 1015.6
20260905115243 71 53 0.0 0.0 0.00 0.00 0.00 33 1015.6
20260905111218 71 53 0.0 0.0 0.00 0.00 0.00 33 1014.6
20260905105213 71 53 0.0 0.0 0.00 0.00 0.00 32 1014.6
20260905101654 72 53 0.0 0.0 0.00 0.00 0.00 32 1014.6
20260905095653 72 53 0.0 0.0 0.00 0.00 0.00 32 1014.6
20260905095153 72 53 0.0 0.0 0.00 0.00 0.00 32 1014.6
20260905094152 72 53 0.0 0.0 0.00 0.00 0.00 32 1014.6
20260905092647 72 53 0.0 0.0 0.00 0.00 0.00 32 1014.6
20260905092147 72 53 0.0 0.0 0.00 0.00 0.00 32 1014.6
20260905091143 72 53 0.0 0.0 0.00 0.00 0.00 32 1014.6
20260905085141 72 53 0.0 0.0 0.00 0.00 0.00 32 1014.6
20260905084139 72 53 0.0 0.0 0.00 0.00 0.00 32 1014.6
20260905083638 72 53 0.0 0.0 0.00 0.00 0.00 32 1014.6
20260905083129 72 53 0.0 0.0 0.00 0.00 0.00 32 1014.6
20260905082630 72 53 0.0 0.0 0.00 0.00 0.00 32 1014.6
20260905081622 72 53 0.0 0.0 0.00 0.00 0.00 31 1014.6
20260905081304 72 53 0.0 0.0 0.00 0.00 0.00 31 1014.6
20260905081123 72 53 0.0 0.0 0.00 0.00 0.00 31 1014.6
20260905075621 73 53 0.0 0.0 0.00 0.00 0.00 31 1014.6
20260905075121 73 53 0.0 0.0 0.00 0.00 0.00 31 1014.6
20260905074617 73 53 0.0 0.0 0.00 0.00 0.00 31 1014.6
20260905074117 73 53 0.0 0.0 0.00 0.00 0.00 31 1014.6
20260905073617 73 53 0.0 0.0 0.00 0.00 0.00 31 1014.6
20260905073113 73 53 0.0 0.0 0.00 0.00 0.00 31 1014.6
20260905072613 73 53 0.0 0.0 0.00 0.00 0.00 31 1014.6
20260905071606 73 53 0.0 0.0 0.00 0.00 0.00 31 1014.6
20260905071104 73 53 0.0 0.0 0.00 0.00 0.00 31 1014.6
20260905070604 73 53 0.0 0.0 0.00 0.00 0.00 31 1014.6
20260905070100 73 53 0.0 0.0 0.00 0.00 0.00 31 1014.6
20260905065100 73 53 0.0 0.0 0.00 0.00 0.00 31 1014.6